Location: Unspecified
(0.0000°N, 0.0000°E)
Time: 21:56:50
(UTC+00:00)

Vanguard 1 - Visible Passes

Search period start: 01 October 2022 00:00
Search period end: 11 October 2022 00:00
Orbit: 649 x 3832 km, 34.2° (Epoch: 30 September)

Date Brightness Start Highest point End Pass type
(mag) Time Alt. Az. Time Alt. Az. Time Alt. Az.
01 Oct 13.1 03:06:47 10° SSW 03:08:54 11° S 03:11:43 10° S visible
01 Oct 13.7 05:30:01 10° SSW 05:39:35 17° SSE 05:51:23 10° SE visible
04 Oct 13.5 04:13:28 10° S 04:17:02 11° SSE 04:21:02 10° SSE visible
05 Oct 13.6 04:33:08 10° S 04:39:45 14° SSE 04:47:49 10° SE visible
06 Oct 13.6 04:53:00 10° S 05:02:13 18° SSE 05:14:05 10° ESE visible
06 Oct 11.8 19:42:28 10° NNW 19:43:24 13° N 19:43:24 13° N visible
07 Oct 13.6 05:12:58 10° SSW 05:24:22 23° SSE 05:39:36 10° ESE visible
07 Oct 11.9 20:02:16 10° NNW 20:03:14 14° NNW 20:03:14 14° NNW visible
08 Oct 12.2 20:22:35 10° NW 20:23:07 12° NW 20:23:07 12° NW visible
09 Oct 13.5 03:38:54 10° SSE 03:40:26 10° SSE 03:42:04 10° SSE visible
09 Oct 11.5 18:23:20 10° NNW 18:27:15 15° NNE 18:30:19 10° ENE visible
10 Oct 13.5 03:56:09 10° S 04:02:35 14° SSE 04:10:38 10° ESE visible
10 Oct 10.8 18:43:00 10° NNW 18:48:30 24° NNE 18:50:16 20° NE visible
